Showing default

KINEIS-5E, 62083

Orbit data source: Space-Track

KINEIS-5E, 62083 is a French payload satellite in SSO that was launched on Mon, 25 Nov 2024 UTC via an ELECTRON launch vehicle from the Rocket Lab Launch Complex (RLLC). Payloads include a variety of satellites, spacecraft, and rockets equipped with specific instruments for various scientific and technological missions. These include communications satellites like Starlink; space stations such as the ISS; scientific satellites like the Hubble; Earth observation satellites from companies like Planet Labs, Umbra, and HawkEye 360; GPS; miniature CubeSats for education and research; and military/defense satellites.

Loading next visibility...
KINEIS-5E details
Identifier
62083, 2024-219C
Orbit
SSO
Last TLE update8 hours ago
Origin
Flag of FRKINEIS (FR)
ManufacturerKINEIS
MissionOperational spacecraft
Bus & MotorCUBESAT 16U, Unknown motor
Mass28 kg wet, 28 kg dry
Launch date (UTC)
2024-11-25 (1 month ago)
Launch vehicle
ELECTRON
Launch site
Rocket Lab Launch Complex (RLLC)
Object type
Payload
Rocket body
Debris
Shape & HBRUnknown
Radar Cross SectionMedium (>0.1 m² and <1 m²)

Expand to show TLE details & history

TLE from 8 hours ago
0 KINEIS-5E
1 62083U 24219C   24361.08081039  .00005545  00000-0  78856-3 0  9998
2 62083  97.9491 159.5904 0000247  77.2880 282.8358 14.77267639  4550
Epoch: 2024-12-26T01:56Z
Definitive object data (Epoch: 2024-12-26T01:56:22.017Z)
Latitude-0.00002°
Longitude35.43333°
Altitude640.94 km
Speed7.538 km/s
True Right ascension10h 38m 21s
True Declination0° 00' 00"
Sunlit
Object was in daylight at TLE epoch
Visualization TLE readout
Latitude-42.50975°
Longitude43.07293°
Altitude654.393 km
Speed7.529 km/s
Apparent Right ascension15h 45m 29s
Apparent Declination-73° 57' 53"
Sunlit
Object is in daylight
Visualization observer readout
Local Sidereal Time09:13:31
Azimuth158.997° S
Elevation-40.252°
Doppler factor1
Orbital elements
Apogee altitude635.182 km
Perigee altitude634.836 km
Semi-major axis7,013.146 km
Eccentricity0.0000247
Inclination97.9491°
RAAN159.5904°
Arg. of periapsis77.288°
True anomaly282.83304°
Mean anomaly282.8358°
Eccentric anomaly282.83442°
Mean motion3.69551 °/min
BSTAR0.00078856
Orbital period97.42 mins
Loading maneuver chart data...
Loading historical data...
Loading historical data...
Loading historical data...
Loading historical data...
Loading historical data...
Loading historical data...
Loading historical data...

KINEIS-5E Visibility forecast

Observer location: undefined°, undefined

Span
Click to sort rows by Start time (UTC) header in descending order
Start Az.
Max El. time (UTC)
Max El. Az.
Max El.
End time (UTC)
End Az.
7 mins2024-12-26 10:12:25.991Z130.107° SE2024-12-26 10:15:25.991Z72.418° E30.098°2024-12-26 10:19:25.991Z5.634° NNE
4 mins2024-12-26 11:50:25.991Z238.571° WSW2024-12-26 11:52:25.991Z273.797° WNW18.343°2024-12-26 11:54:25.991Z304.762° NW
7 mins2024-12-26 23:39:25.991Z15.645° NNE2024-12-26 23:42:25.991Z161.713° S44.303°2024-12-26 23:46:25.991Z191.279° SSW
|